(279707) = 2011 FE150 = 2010 GG169

Discovered at Mount Lemmon on 2006-05-09 by Mt. Lemmon Survey.

Orbit

Orbit type: Main Belt

Note: WebGL enabled browser required.

epoch2023-09-13.0
epoch JD2460200.5
perihelion date2021-04-16.84939
perihelion JD2459321.34939
argument of perihelion (°)324.29683
ascending node (°)200.29841
inclination (°)13.47704
eccentricity0.0981362
perihelion distance (AU)2.7472037
Tisserand w.r.t. Jupiter3.2
ΔV w.r.t. Earth (km/sec)11.1
semimajor axis (AU)3.0461404
mean anomaly (°)162.98298
mean daily motion (°/day)0.18538690
aphelion distance (AU)3.345
period (years)5.32
P-vector [x]-0.95849850
P-vector [y]0.28398908
P-vector [z]-0.02511622
Q-vector [x]-0.27339353
Q-vector [y]-0.94055869
Q-vector [z]-0.20150763
absolute magnitude16.07
phase slope0.15
uncertainty0
referenceMPEC 2023-Y63
observations used369
oppositions16
arc length (days)10394
first opposition used1995
last opposition used2023
residual rms (arc-secs)0.76
perturbers coarse indicatorM-v
perturbers precise indicator003Ek
first observation date used1995-04-25.0
last observation date used2023-10-09.0
computer nameMPCLINUX
JD of orbit computation2456639.719850
perihelion JD uncertainty (days)2.2126E-04
argument of perihelion uncertainty (°)4.2714E-05
ascending node uncertainty (°)1.8119E-05
inclination uncertainty (°)8.8111E-06
eccentricity uncertainty 6.5416E-08
perihelion distance uncertainty (AU)1.9673E-07
Minimum Orbit Intersection Distances (in AU)
for orbit epoch: 2460200.5, reference: E2023-Y63
Mercury2.36373
Venus2.04347
Earth1.76263
Mars1.12681
Jupiter1.66178
Saturn6.01467
Uranus15.7258
Neptune26.5561

Observations

373 total observations over interval: 1995 04 25.21366 – 2023 10 09.278477
These data are available for download (format description).

Date (UT) J2000 RA J2000 Dec Magn Location Ref
1995 04 25.21366 14 16 38.88 -08 17 15.7 19.7 V 691 – Steward Observatory, Kitt Peak-Spacewatch MPS 380148
1995 04 25.23516 14 16 37.93 -08 17 04.2   691 – Steward Observatory, Kitt Peak-Spacewatch MPS 380148
1995 04 25.25673 14 16 36.95 -08 16 53.7   691 – Steward Observatory, Kitt Peak-Spacewatch MPS 380148
2003 11 18.35103 03 42 45.68 +08 02 04.2 21.1 V 691 – Steward Observatory, Kitt Peak-Spacewatch MPS 380148
2003 11 18.37906 03 42 44.32 +08 01 54.8 21.3 V 691 – Steward Observatory, Kitt Peak-Spacewatch MPS 380148
2003 11 18.40743 03 42 42.91 +08 01 44.5 21.1 V 691 – Steward Observatory, Kitt Peak-Spacewatch MPS 380148
2005 03 04.23248 09 28 50.23 -01 30 09.8 20.2 R 703 – Catalina Sky Survey MPS 380148
2005 03 04.24252 09 28 49.94 -01 30 03.9 20.0 R 703 – Catalina Sky Survey MPS 380148
2005 03 04.25272 09 28 49.53 -01 30 00.0 19.8 R 703 – Catalina Sky Survey MPS 380148
2005 03 04.26279 09 28 49.18 -01 29 54.5 19.3 R 703 – Catalina Sky Survey MPS 380148
2006 05 09.40339 16 47 53.19 -08 32 35.8 19.8 V G96 – Mt. Lemmon Survey MPS 378874
2006 05 09.41018 16 47 52.98 -08 32 33.2 19.6 V G96 – Mt. Lemmon Survey MPS 378874
2006 05 09.41706 16 47 52.69 -08 32 30.2 19.5 V G96 – Mt. Lemmon Survey MPS 378874
2006 05 09.42387 16 47 52.47 -08 32 27.6 19.9 V G96 – Mt. Lemmon Survey MPS 378874
2006 05 26.63756 16 35 32.28 -06 55 33.5 20.4 V D35 – Lulin Observatory MPS 378874
2006 05 26.64159 16 35 32.06 -06 55 32.3 21.4 V D35 – Lulin Observatory MPS 378874
2006 05 26.64649 16 35 31.86 -06 55 30.6 21.0 V D35 – Lulin Observatory MPS 378874
2006 06 20.24305 16 17 36.68 -05 37 42.3 20.5 V 691 – Steward Observatory, Kitt Peak-Spacewatch MPS 380148
2006 06 20.26035 16 17 36.05 -05 37 40.6 20.6 V 691 – Steward Observatory, Kitt Peak-Spacewatch MPS 380148
2006 06 20.27760 16 17 35.39 -05 37 39.4 20.9 V 691 – Steward Observatory, Kitt Peak-Spacewatch MPS 380148
2008 09 20.35724 02 24 30.06 +12 18 43.1   691 – Steward Observatory, Kitt Peak-Spacewatch MPS 378874
2008 09 20.37552 02 24 29.70 +12 18 37.6   691 – Steward Observatory, Kitt Peak-Spacewatch MPS 378874
2008 09 20.39313 02 24 29.28 +12 18 31.9   691 – Steward Observatory, Kitt Peak-Spacewatch MPS 378874
2008 10 23.33880 02 05 27.13 +08 38 47.0 20.1 V G96 – Mt. Lemmon Survey MPS 378874
2008 10 23.34590 02 05 26.80 +08 38 44.2 20.1 V G96 – Mt. Lemmon Survey MPS 378874
2008 10 23.35308 02 05 26.48 +08 38 40.9 20.1 V G96 – Mt. Lemmon Survey MPS 378874
2008 10 23.36015 02 05 26.16 +08 38 37.5 20.2 V G96 – Mt. Lemmon Survey MPS 378874
2010 04 05.978009 07 23 53.29 +08 01 10.8   C51 – WISE MPS 342103
2010 04 05.97801 07 23 53.30 +08 01 10.7   C51 – WISE MPS 342103
2010 04 06.110314 07 23 59.43 +08 01 42.5   C51 – WISE MPS 342103
2010 04 06.242617 07 24 05.63 +08 02 14.7   C51 – WISE MPS 342103
2010 04 06.374921 07 24 11.76 +08 02 45.8   C51 – WISE MPS 342103
2010 04 06.441138 07 24 14.87 +08 03 02.1   C51 – WISE MPS 342103
2010 04 06.507226 07 24 18.00 +08 03 17.4   C51 – WISE MPS 342103
2010 04 06.507353 07 24 17.94 +08 03 17.1   C51 – WISE MPS 342103
2010 04 06.573441 07 24 21.07 +08 03 33.2   C51 – WISE MPS 342103
2010 04 06.639657 07 24 24.18 +08 03 48.1   C51 – WISE MPS 342103
2010 04 06.705745 07 24 27.27 +08 04 04.2   C51 – WISE MPS 342103
2010 04 06.771961 07 24 30.37 +08 04 19.2   C51 – WISE MPS 342103
2010 04 06.83805 07 24 33.46 +08 04 37.0   C51 – WISE MPS 342103
2010 04 06.970353 07 24 39.74 +08 05 05.9   C51 – WISE MPS 342103
2010 04 07.102785 07 24 46.05 +08 05 36.6   C51 – WISE MPS 342103
2010 04 07.235089 07 24 52.38 +08 06 06.2   C51 – WISE MPS 342103
2011 03 28.40381 14 50 04.07 -12 18 39.0 20.2 V 691 – Steward Observatory, Kitt Peak-Spacewatch MPS 378874
2011 03 28.42159 14 50 03.66 -12 18 30.9 20.1 V 691 – Steward Observatory, Kitt Peak-Spacewatch MPS 378874
2011 03 28.43938 14 50 03.33 -12 18 24.5 20.3 V 691 – Steward Observatory, Kitt Peak-Spacewatch MPS 378874
2011 04 05.41343 14 46 49.25 -11 20 03.0 20.2 V 691 – Steward Observatory, Kitt Peak-Spacewatch MPS 378874
2011 04 05.43119 14 46 48.71 -11 19 54.7 20.1 V 691 – Steward Observatory, Kitt Peak-Spacewatch MPS 378874
2011 04 05.44898 14 46 48.19 -11 19 46.4 20.2 V 691 – Steward Observatory, Kitt Peak-Spacewatch MPS 378874
2011 04 13.40504 14 42 24.15 -10 16 10.4 20.0 V 691 – Steward Observatory, Kitt Peak-Spacewatch MPS 378874
2011 04 13.42281 14 42 23.48 -10 16 01.5 20.0 V 691 – Steward Observatory, Kitt Peak-Spacewatch MPS 378874
2011 04 13.44058 14 42 22.80 -10 15 52.6 20.0 V 691 – Steward Observatory, Kitt Peak-Spacewatch MPS 378874
2011 04 15.50255 14 41 05.343 -09 58 49.17 19.9 i F51 – Pan-STARRS 1, Haleakala MPS 379776
2011 04 15.51379 14 41 04.893 -09 58 43.51 19.8 i F51 – Pan-STARRS 1, Haleakala MPS 379776
2011 04 15.52667 14 41 04.368 -09 58 37.00 19.9 r F51 – Pan-STARRS 1, Haleakala MPS 379776
2011 04 15.53693 14 41 03.956 -09 58 31.81 20.0 r F51 – Pan-STARRS 1, Haleakala MPS 379776
2011 04 27.39289 14 32 53.208 -08 19 37.06 20.9 w F51 – Pan-STARRS 1, Haleakala MPS 380148
2011 04 27.40747 14 32 52.543 -08 19 29.86 20.8 w F51 – Pan-STARRS 1, Haleakala MPS 380148
2011 04 27.42239 14 32 51.876 -08 19 22.58 20.0 w F51 – Pan-STARRS 1, Haleakala MPS 380148
2011 04 27.43698 14 32 51.209 -08 19 15.43 20.2 w F51 – Pan-STARRS 1, Haleakala MPS 380148
2011 04 27.44229 14 32 50.974 -08 19 12.84 19.9 r F51 – Pan-STARRS 1, Haleakala MPS 380148
2011 04 27.45206 14 32 50.526 -08 19 08.05 19.9 r F51 – Pan-STARRS 1, Haleakala MPS 380148
2011 04 27.46331 14 32 50.015 -08 19 02.55 19.7 i F51 – Pan-STARRS 1, Haleakala MPS 380148
2011 04 28.31765 14 32 12.98 -08 12 02.7 19.9 V 703 – Catalina Sky Survey MPS 380148
2011 04 28.32894 14 32 12.51 -08 11 56.9 19.6 V 703 – Catalina Sky Survey MPS 380148
2011 04 28.34027 14 32 11.90 -08 11 50.8 19.9 V 703 – Catalina Sky Survey MPS 380148
2011 04 28.35159 14 32 11.50 -08 11 46.8 19.8 V 703 – Catalina Sky Survey MPS 380148
2011 05 13.27893 14 21 46.76 -06 18 50.4 20.2 V G96 – Mt. Lemmon Survey MPS 382320
2011 05 13.28591 14 21 46.47 -06 18 47.6 19.9 V G96 – Mt. Lemmon Survey MPS 382320
2011 05 13.29282 14 21 46.18 -06 18 44.4 19.9 V G96 – Mt. Lemmon Survey MPS 382320
2011 05 13.29976 14 21 45.93 -06 18 41.8 19.5 V G96 – Mt. Lemmon Survey MPS 382320
2012 08 16.37916 19 48 38.931 -02 38 22.88 21.0 r F51 – Pan-STARRS 1, Haleakala MPS 430988
2012 08 16.38902 19 48 38.589 -02 38 25.96 20.8 r F51 – Pan-STARRS 1, Haleakala MPS 430988
2013 09 06.30583 00 48 41.96 +10 15 51.5 20.9 V 691 – Steward Observatory, Kitt Peak-Spacewatch MPS 476036
2013 09 06.32352 00 48 41.41 +10 15 46.1 21.0 V 691 – Steward Observatory, Kitt Peak-Spacewatch MPS 476036
2013 09 06.34122 00 48 40.86 +10 15 40.8 20.5 V 691 – Steward Observatory, Kitt Peak-Spacewatch MPS 476036
2013 09 14.34312 00 44 24.33 +09 29 50.5 21.0 V 691 – Steward Observatory, Kitt Peak-Spacewatch MPS 477570
2013 09 14.36084 00 44 23.68 +09 29 43.9 20.6 V 691 – Steward Observatory, Kitt Peak-Spacewatch MPS 477570
2013 09 14.37856 00 44 23.01 +09 29 37.4 20.8 V 691 – Steward Observatory, Kitt Peak-Spacewatch MPS 477570
2013 09 30.57344 00 33 50.32 +07 35 28.8 20.7 R D29 – Purple Mountain Observatory, XuYi Station MPS 487003
2013 09 30.58934 00 33 49.72 +07 35 22.8 21.3 R D29 – Purple Mountain Observatory, XuYi Station MPS 487003
2013 10 04.50261 00 31 07.345 +07 05 09.38 20.9 g F51 – Pan-STARRS 1, Haleakala MPS 482139
2013 10 04.51489 00 31 06.837 +07 05 03.61 21.1 g F51 – Pan-STARRS 1, Haleakala MPS 482139
2013 10 05.30076 00 30 34.47 +06 58 55.6 19.9 V G96 – Mt. Lemmon Survey MPS 482139
2013 10 05.30604 00 30 34.26 +06 58 52.8 19.9 V G96 – Mt. Lemmon Survey MPS 482139
2013 10 05.31130 00 30 34.03 +06 58 50.7 20.1 V G96 – Mt. Lemmon Survey MPS 482139
2013 10 05.31657 00 30 33.81 +06 58 48.1 20.2 V G96 – Mt. Lemmon Survey MPS 482139
2013 10 25.21803 00 18 14.67 +04 28 03.3 20.4 V G96 – Mt. Lemmon Survey MPS 483473
2013 10 25.22281 00 18 14.51 +04 28 01.2 20.3 V G96 – Mt. Lemmon Survey MPS 483473
2013 10 25.22760 00 18 14.35 +04 27 59.0 20.0 V G96 – Mt. Lemmon Survey MPS 483473
2013 10 25.23238 00 18 14.20 +04 27 57.2 20.5 V G96 – Mt. Lemmon Survey MPS 483473
2013 12 04.07218 00 12 03.65 +01 33 28.4 20.9 V G96 – Mt. Lemmon Survey MPS 490880
